sat.trackr.live / text

‹ back to catalog

CENTISPACE-2 S7

NORAD 68356 · 2026-060G

PAYLOAD ACTIVE UNKNOWN

§ Identity

Operator
Country
PRC
Launch date
2026-03-22
Launch site
YSLA
Launch vehicle
Mass (kg)
RCS (m²)

External: N2YO · Heavens-Above · Gunter

§ Orbital elements

Epoch: 2026-09-19T00:38:10.768128Z

Period
101.01 min
Inclination
54.9868°
Eccentricity
0.0011516
Mean motion
14.25609592 rev/d
Perigee alt
798.2 km
Apogee alt
814.7 km
Semi-major
7,184.6 km
B*
1.1486e-4
RAAN
31.1819°
Arg perigee
318.0983°
Mean anomaly
41.9112°
Rev number
2,633

§ Raw data

CENTISPACE-2 S71 68356U 26060G   26262.02651352  .00000116  00000+0  11486-3 0  99942 68356  54.9868  31.1819 0011516 318.0983  41.9112 14.25609592 26334

JSON: /api/v1/satellites/68356 · /tle

For live sub-satellite position, see the globe view (requires WebGL).

§ Visibility from observer

Set your observer location to see the next 7 days of passes ≥ 10°. The values pass through the URL so the page stays shareable.

No JS? Fill the form by hand. The geolocation button needs JavaScript.